Dewpoint
19 18 8 5 5 7 8 7 10 10 8 10 13 11 8 6 7 8 8 7 9 20 34 43 44 39 48 52 54 54 54 53 53 53 53 54 54 57 60 61 61 62 62 64 65 65 65 66 66 66 66 66 66 66 66 65 65 65 65 64 63 64 65 65 65 65 64 62 62 62 62 62 62 63 63 64 63 64 64 64 64 64 64 64 64 66
20 20 17 14 9 8 8 11 17 11 10 9 10 8 9 8 7 8 7 8 8 17 32 44 45 47 47 49 53 54 53 52 51 51 52 53 55 56 58 61 61 62 63 64 64 65 65 65 65 65 65 65 64 64 64 64 64 64 63 63 63 63 64 64 65 65 64 63 64 62 62 62 62 62 63 64 64 64 64 64 64 64 65 65 65 66
22 19 23 19 14 10 10 13 11 11 12 11 10 12 9 9 9 8 10 23 37 39 40 44 45 47 50 49 51 53 53 52 51 53 54 54 54 56 59 60 61 61 62 63 63 63 64 64 64 63 64 64 64 63 63 63 62 61 61 61 61 62 62 63 64 63 63 64 64 63 63 62 62 62 64 64 65 65 64 64 64 65 65 65 65 65
22 23 22 19 11 9 12 10 9 12 17 12 11 9 8 9 6 5 15 36 47 33 45 46 46 47 51 52 51 53 54 52 55 55 56 56 55 58 60 60 60 61 61 61 62 62 62 62 62 62 62 62 62 62 61 60 60 60 60 60 61 61 61 61 63 63 63 64 64 63 64 63 64 63 64 64 64 64 64 64 64 65 64 64 65 65
22 22 22 13 12 10 11 13 11 12 10 19 10 12 9 7 6 10 16 39 45 48 49 47 46 47 50 50 52 54 55 54 55 57 57 56 57 58 57 58 61 60 60 60 61 61 61 60 60 60 60 60 60 60 59 59 59 59 59 59 60 60 60 60 61 61 62 62 62 62 62 62 62 62 62 63 63 63 64 64 64 64 65 65 66 65
21 20 18 14 13 12 10 10 12 12 10 13 18 7 8 7 7 9 18 28 35 37 41 37 29 38 48 50 52 53 52 51 54 55 55 55 55 56 55 57 60 60 61 60 59 59 59 59 59 59 59 58 58 58 59 58 58 58 58 59 59 59 60 60 60 61 60 60 60 60 60 59 60 60 60 61 61 62 62 63 64 64 65 65 66 66
20 22 19 17 14 12 11 10 11 10 12 11 10 11 8 8 9 10 8 16 21 16 29 30 15 28 46 48 50 51 50 50 52 53 53 53 54 55 56 57 58 58 58 59 59 59 58 58 57 57 57 57 57 58 58 58 58 58 58 58 59 59 59 60 60 60 60 59 59 59 59 59 59 59 60 61 62 62 62 62 62 63 64 64 64 64
19 19 18 18 15 13 13 12 12 10 10 9 11 11 9 8 8 12 9 10 15 26 22 32 31 32 39 47 50 51 49 49 50 52 51 53 54 54 56 57 57 57 57 57 57 57 57 57 56 56 57 57 57 57 57 57 57 57 57 57 58 58 59 59 59 59 60 58 59 59 59 59 59 60 59 60 60 61 61 60 61 61 62 63 63 63
20 19 19 18 19 15 14 15 13 10 9 10 13 10 9 9 9 11 11 13 15 13 7 19 37 30 37 45 50 49 47 48 49 51 52 53 53 53 55 56 56 56 56 56 56 55 56 55 55 55 55 56 56 57 57 57 57 57 57 57 56 57 57 57 58 57 58 59 58 58 58 58 59 59 59 59 59 58 59 58 59 59 60 61 61 62
16 17 18 18 17 15 16 14 11 8 8 10 13 12 11 10 13 9 11 10 13 8 10 19 32 25 31 44 45 48 47 47 49 50 52 52 53 55 54 54 55 55 55 55 55 55 55 55 54 55 55 55 55 56 57 57 56 56 56 56 55 55 56 56 56 56 57 57 57 57 57 57 57 57 57 57 56 57 57 57 58 58 59 60 61 61
16 27 23 18 17 17 15 15 10 8 9 12 10 9 11 19 16 25 19 19 12 5 11 22 34 26 25 40 44 43 46 48 49 50 52 53 53 54 54 54 54 54 54 54 54 55 55 55 54 54 53 54 54 55 55 55 55 55 55 55 54 54 54 54 54 55 55 56 56 56 56 55 55 56 55 55 55 56 56 56 56 57 58 59 59 60
9 20 19 19 23 18 16 15 14 10 11 9 10 10 9 12 15 15 15 15 4 7 14 23 36 29 18 29 42 46 49 48 49 49 51 51 53 53 53 53 53 54 54 54 54 54 54 55 55 54 53 53 53 54 54 54 54 54 54 54 53 53 53 53 53 53 53 54 54 55 55 55 54 54 54 54 54 55 55 55 55 56 57 57 58 59
10 12 17 19 28 17 16 14 13 11 8 8 11 9 7 11 7 3 9 4 6 7 16 21 33 28 27 33 42 46 47 48 49 50 51 52 52 52 53 53 53 53 54 53 53 53 53 53 53 53 52 52 52 53 54 54 54 54 53 53 53 52 53 52 52 52 52 52 53 53 53 54 54 53 53 53 53 54 54 55 55 55 55 56 56 57
10 8 9 15 21 21 16 14 12 11 9 8 9 10 6 5 3 1 7 8 11 14 21 23 29 27 33 43 47 45 48 49 50 52 52 52 51 52 52 52 52 52 52 52 52 52 52 53 52 52 52 52 52 53 53 53 53 53 53 53 52 52 52 52 51 51 51 51 52 52 52 53 53 53 52 52 52 52 52 52 52 52 52 53 54 53
4 5 6 13 16 18 16 15 13 15 11 8 9 8 9 10 4 -1 7 4 5 11 19 28 27 25 32 39 47 49 50 51 52 52 52 52 52 52 52 53 52 52 52 52 52 52 51 52 52 52 51 51 52 52 53 53 52 52 52 52 52 52 52 52 52 51 51 51 51 51 51 52 53 52 51 51 51 50 50 50 50 50 50 50 51 52
4 11 15 12 14 17 15 17 14 12 11 11 9 9 9 7 17 7 15 13 14 14 18 26 26 36 40 46 48 51 51 51 52 51 51 50 51 51 49 50 51 51 51 51 51 51 51 51 51 51 51 51 52 52 52 52 52 52 52 52 52 51 51 52 52 51 51 50 50 50 50 51 52 52 50 50 50 49 49 49 49 49 49 50 49 50
6 7 15 16 15 16 16 16 15 14 13 14 8 9 10 16 20 12 11 20 15 16 12 32 35 41 44 47 48 50 50 50 50 50 50 50 49 49 48 48 49 50 50 50 51 51 51 51 50 50 50 51 51 51 51 51 52 51 51 51 50 50 50 51 51 50 50 50 49 49 50 50 50 49 49 49 48 48 48 49 48 48 49 49 49 49
6 13 16 14 12 14 14 15 14 14 17 9 11 12 17 18 21 13 6 10 10 10 16 32 33 36 37 33 46 48 47 48 49 49 49 49 48 48 48 49 49 49 50 51 52 51 50 49 49 49 50 50 50 50 51 51 51 51 50 50 50 50 49 49 49 49 49 49 49 49 49 49 50 49 49 49 48 48 48 48 48 48 47 47 48 48
16 9 11 15 13 14 15 15 12 12 11 11 12 14 11 9 7 15 15 4 4 5 17 30 35 36 36 35 44 45 46 46 48 48 48 48 48 48 49 49 50 50 50 50 50 49 48 48 49 49 49 49 49 50 50 51 51 50 50 50 49 48 48 48 49 48 48 48 48 48 48 48 49 49 49 49 49 49 48 47 47 47 47 47 48 47
21 12 14 18 14 15 12 12 14 11 9 12 12 11 17 16 14 12 13 11 14 10 20 26 33 30 38 38 44 45 47 47 48 47 47 48 48 49 49 49 49 49 49 49 48 48 48 48 48 47 47 47 47 48 49 49 49 49 48 48 48 48 47 47 47 47 47 47 47 47 47 47 47 48 48 49 48 48 49 48 47 47 46 46 47 47
13 19 10 17 18 14 13 12 13 11 10 10 12 11 14 17 19 13 18 15 14 17 17 21 26 30 35 41 44 45 47 48 48 47 48 48 48 49 49 48 49 48 48 48 48 48 47 47 46 46 46 46 47 48 48 49 49 49 49 47 47 47 46 46 47 47 46 46 46 46 45 46 46 46 47 47 48 48 48 48 48 47 45 45 45 45
15 16 16 22 13 14 16 15 12 10 9 9 12 12 12 15 10 6 11 20 26 23 21 23 21 27 33 41 44 46 47 48 48 48 47 48 48 48 48 48 48 47 48 47 47 46 46 45 44 44 45 46 46 48 47 47 47 46 46 46 46 46 46 46 46 46 46 46 45 45 45 45 45 45 45 46 46 47 47 47 48 48 45 44 44 44
19 22 19 12 17 14 14 13 13 10 9 8 9 10 10 18 15 11 7 12 24 27 28 25 20 22 36 42 42 47 48 48 48 47 47 47 47 48 48 48 48 47 46 46 45 44 44 43 43 44 44 45 45 45 46 46 46 46 45 45 45 45 45 46 46 46 46 46 45 45 45 45 44 44 44 44 45 45 45 45 46 47 45 43 43 43
36 16 16 18 20 23 22 21 16 12 9 9 8 11 11 14 16 12 17 20 20 25 23 20 16 25 39 45 46 47 48 47 47 47 47 47 47 47 47 47 47 46 46 44 44 43 43 42 43 44 44 44 44 44 44 45 45 45 45 45 45 45 45 45 45 45 45 45 45 45 45 44 44 44 44 43 44 44 44 44 45 46 43 43 43 42
6 12 16 14 11 15 18 15 13 13 12 16 12 16 10 12 16 24 24 24 21 27 25 20 15 28 42 45 46 47 47 46 46 46 46 46 47 47 46 46 45 44 43 43 42 42 42 42 42 43 43 43 44 44 44 44 44 44 44 44 44 44 45 45 45 44 44 45 45 45 45 45 44 44 44 43 43 43 43 43 43 44 43 42 41 41
11 20 15 13 10 10 8 12 13 12 12 17 25 13 12 10 20 16 11 15 11 20 22 16 19 32 44 45 46 46 46 46 46 46 46 46 46 46 45 44 44 43 42 41 41 41 41 42 42 43 43 43 43 43 43 43 43 44 44 44 44 44 44 44 44 44 44 44 44 44 44 45 45 44 44 44 43 43 43 42 42 42 42 42 41 40
15 25 19 20 17 17 19 19 23 26 14 10 17 15 16 17 15 16 21 16 13 19 23 24 33 38 41 43 44 45 45 44 45 46 46 46 45 45 44 43 43 42 41 41 41 41 41 41 41 42 42 42 43 43 43 43 43 43 43 43 44 44 44 44 44 43 43 43 43 43 43 43 44 45 44 44 44 44 43 42 42 41 41 42 41 40
25 18 21 23 24 22 23 24 31 28 15 18 16 16 15 18 22 19 17 16 22 24 20 31 39 39 40 43 44 44 44 44 45 45 45 45 45 44 43 42 43 41 40 40 40 40 40 41 41 42 42 42 42 42 43 43 43 43 43 43 43 43 44 44 43 42 42 42 42 41 42 42 42 43 43 43 43 43 43 43 43 42 41 41 40 40
20 14 20 31 33 33 34 35 36 34 31 30 30 24 19 21 21 17 19 24 24 18 18 31 39 38 41 43 44 44 44 44 44 45 45 44 44 43 42 41 40 40 39 39 40 40 40 41 41 41 42 42 42 42 42 42 42 42 42 42 42 42 42 43 42 41 41 41 41 41 41 41 42 42 42 42 41 41 42 42 43 43 42 41 40 41
16 13 23 31 32 33 34 34 34 34 31 30 32 31 30 26 22 21 26 27 24 22 27 37 39 38 42 44 44 45 45 44 45 45 44 43 42 42 41 40 39 39 39 39 39 40 40 41 41 41 41 41 41 41 41 41 41 41 41 41 41 41 42 41 41 40 40 40 40 40 40 40 41 40 40 40 40 40 41 41 41 41 41 41 41 40
16 13 33 30 28 30 33 34 33 32 30 31 31 32 32 31 31 32 32 34 37 37 37 39 38 37 42 45 44 44 44 44 44 44 43 42 42 41 40 39 39 39 39 39 39 40 40 41 41 41 41 41 41 41 41 41 41 41 41 41 41 41 41 40 40 39 39 39 39 39 39 39 39 39 39 40 40 40 40 40 40 40 39 40 40 40
24 23 30 27 25 28 33 32 32 32 31 30 29 32 33 31 27 31 29 32 32 35 38 38 36 36 42 44 44 44 44 43 43 43 42 42 41 40 39 39 39 39 39 39 39 39 40 40 40 40 40 40 40 41 41 41 42 41 41 41 41 41 40 40 39 39 39 39 38 38 38 39 39 38 39 39 39 39 39 39 39 38 38 38 39 39
28 30 26 24 21 22 32 33 30 28 25 23 23 31 33 33 32 33 32 36 37 39 37 34 35 40 43 43 43 43 43 43 43 43 42 41 41 40 39 39 39 39 38 39 39 40 40 40 40 41 41 41 41 42 43 42 41 41 42 41 42 40 39 39 39 38 38 38 38 38 38 38 38 38 38 38 38 38 38 38 37 38 38 37 39 38
32 30 26 27 21 23 31 30 30 25 16 20 28 34 34 33 33 33 34 35 38 37 35 35 36 43 43 43 43 42 43 43 43 43 42 41 40 40 40 40 39 39 39 39 39 39 40 40 41 41 41 42 42 43 43 43 43 42 43 42 40 39 39 38 38 38 37 37 37 37 37 38 38 37 37 37 37 37 37 37 37 37 38 37 37 37
30 28 26 27 29 27 26 27 24 18 21 28 33 34 35 34 34 36 37 37 35 35 36 38 42 43 43 43 43 43 43 43 43 42 41 41 40 40 39 39 39 39 39 39 39 40 40 40 40 40 41 41 41 41 42 42 41 40 40 39 38 38 38 38 37 37 37 37 37 37 37 37 37 37 37 37 37 37 36 36 36 36 37 36 36 36
28 29 25 26 22 23 23 19 17 21 28 34 34 34 36 36 35 36 34 37 36 36 36 38 42 43 43 43 43 43 43 43 43 43 41 41 41 40 39 39 39 39 39 39 39 39 39 39 39 39 40 41 41 40 39 39 39 38 38 38 38 37 37 37 37 37 36 36 36 36 36 36 36 36 36 36 36 36 35 35 35 36 37 37 35 36
31 30 29 28 26 23 22 23 22 29 29 32 33 34 36 34 35 32 28 32 34 36 39 41 42 42 42 42 42 41 41 41 40 40 41 41 41 40 40 39 39 39 39 39 39 39 39 39 39 40 40 40 39 38 38 38 38 37 37 37 37 37 37 36 36 36 37 37 37 37 36 36 36 36 35 35 35 35 35 35 35 35 37 34 35 35
33 28 29 29 24 27 25 22 23 20 20 25 32 35 38 35 36 32 32 30 33 37 41 42 42 42 42 41 40 41 41 40 37 38 40 41 40 40 40 40 39 39 39 39 39 39 39 39 39 40 39 38 38 38 38 38 37 37 36 36 36 36 36 36 36 36 37 36 36 36 36 36 36 36 35 35 35 35 35 35 35 35 36 34 34 34
33 33 30 26 28 26 21 22 20 20 22 29 32 35 38 38 36 34 30 28 31 38 41 42 42 42 41 40 40 41 40 37 36 38 40 40 39 39 39 39 39 39 39 39 38 38 38 39 38 39 38 37 37 38 38 37 37 36 36 36 36 36 35 35 35 35 36 36 36 36 36 35 35 35 35 35 35 35 35 35 35 36 34 34 34 34
30 25 27 29 25 23 22 20 19 20 20 29 33 36 38 38 35 30 22 23 32 39 41 42 42 41 41 40 41 41 40 38 37 38 40 39 39 39 39 38 38 38 38 38 38 38 38 39 39 37 37 37 37 37 37 37 36 37 36 36 35 35 35 35 36 35 35 35 36 36 37 37 38 37 35 34 34 35 35 36 34 34 33 33 33 33
24 26 28 28 26 24 23 20 20 21 28 31 33 36 37 37 31 25 22 25 34 40 42 42 42 41 41 40 41 40 39 38 39 39 39 39 39 39 39 39 39 38 38 38 38 40 38 38 37 37 37 37 37 37 37 37 37 37 37 35 35 35 35 35 35 35 35 35 36 36 36 35 35 35 35 35 35 36 35 35 34 34 33 33 33 32
23 26 27 27 26 26 21 25 24 20 28 32 35 38 37 32 25 27 30 32 39 40 42 42 41 41 41 41 41 38 38 39 40 39 39 39 38 39 39 40 40 39 39 39 40 38 37 37 37 37 37 37 37 38 37 37 37 36 36 35 35 35 35 35 35 35 35 35 36 36 36 36 36 38 37 37 35 33 33 34 34 35 33 33 32 32
29 27 26 26 24 25 16 19 19 18 23 38 37 35 34 26 28 30 34 38 41 41 41 41 41 41 41 40 38 38 39 39 39 38 38 38 38 39 39 40 39 39 38 38 38 37 37 36 36 36 37 37 37 37 37 37 36 36 36 35 35 35 35 35 35 35 35 36 36 37 36 37 37 37 38 37 36 33 33 33 34 33 34 33 32 32
32 28 23 23 28 26 19 21 22 28 31 38 36 33 35 34 34 35 38 39 40 41 41 41 40 41 40 38 38 38 38 38 38 38 38 38 38 39 39 39 39 39 39 37 37 37 37 36 36 36 37 37 37 36 36 36 36 36 35 35 35 35 36 35 35 36 36 36 36 36 38 38 38 35 35 37 36 36 34 34 34 34 34 33 33 32
32 30 31 30 30 25 25 26 27 31 34 34 34 35 34 36 36 38 39 40 40 40 41 40 40 39 38 38 38 38 38 38 38 38 37 38 38 38 38 38 38 38 37 36 36 37 36 36 36 36 36 36 36 36 36 36 36 36 35 35 35 37 36 36 36 36 35 35 35 35 35 35 34 35 34 34 35 36 37 36 35 34 33 33 33 32
35 35 32 33 32 33 33 32 33 32 33 34 34 35 35 35 36 38 40 40 40 40 40 40 39 38 38 39 38 38 37 37 37 37 37 38 38 38 39 39 39 38 38 37 36 37 36 36 36 36 36 35 35 36 36 36 36 36 35 34 36 36 36 36 36 35 35 34 34 34 34 34 34 33 33 34 33 35 34 35 36 35 34 33 33 32
33 35 31 30 32 29 26 31 32 33 33 33 34 35 35 35 35 37 39 40 40 40 40 39 39 38 38 38 38 37 37 37 37 37 37 37 37 37 38 38 38 38 38 37 37 36 35 35 35 35 35 35 34 35 35 35 35 35 34 35 35 35 36 36 36 36 35 34 34 33 34 33 33 33 33 31 32 33 35 35 34 33 34 33 33 33
31 34 33 32 30 28 27 32 33 33 34 34 34 34 34 35 36 36 37 39 40 40 39 39 39 38 38 38 38 37 37 37 37 37 37 37 37 36 37 37 37 37 38 38 38 35 35 35 35 35 35 34 33 34 34 34 33 33 34 34 35 35 36 37 36 35 35 34 34 34 33 33 34 35 33 32 32 33 34 33 34 33 33 34 33 34
32 36 28 31 31 34 35 34 34 34 33 34 35 34 35 35 36 37 38 38 38 38 38 38 39 38 38 38 37 37 37 37 37 36 36 36 36 36 36 37 37 37 37 37 36 35 35 34 34 34 34 34 32 32 33 32 33 33 33 34 34 34 35 36 35 35 34 33 33 34 35 35 34 34 33 33 33 32 32 33 33 33 34 33 32 34
33 30 31 31 30 30 32 32 34 32 31 32 33 34 35 36 37 37 37 38 38 38 38 38 38 38 38 38 37 37 36 36 36 37 36 36 35 35 35 34 35 36 35 34 35 33 34 35 34 34 33 32 32 32 31 31 32 32 32 32 32 33 34 34 33 32 33 32 33 33 33 34 34 33 34 33 33 33 34 33 35 35 34 34 36 34
31 31 32 30 30 28 33 34 36 33 33 33 34 35 36 37 37 37 37 37 38 38 38 38 37 37 37 37 37 37 37 37 38 37 36 35 34 34 35 36 34 33 32 32 32 32 33 33 34 33 32 32 32 31 31 31 31 31 31 31 31 32 32 32 32 31 30 32 32 32 33 33 32 32 32 32 32 32 32 31 31 33 34 35 35 35